"Pseudo-MPEC" for S511387

Created 2018 Mar 31 12:51:19 UT using Find_Orb

Click here for an explanation of pseudo-MPECs

 
 Astrometry: 
     S511387  C2018 03 30.99255 07 13 37.89 +18 21 08.6          13.4 Rq     Y00
     S511387  C2018 03 30.99419 07 13 48.84 +18 19 29.8          13.8 Rq     Y00
     S511387  C2018 03 30.99597 07 14 00.75 +18 17 43.1          13.0 Rq     Y00
     S511387  C2018 03 31.01268 07 15 58.46 +18 00 14.6          13.5 Rq     Y00
     S511387  C2018 03 31.01300 07 16 00.91 +17 59 53.3          13.3 Rq     Y00
     S511387  C2018 03 31.01331 07 16 03.31 +17 59 32.1          13.1 Rq     Y00
     S511387  C2018 03 31.02765 07 17 52.99 +17 43 34.6          13.5 Rq     Y00
     S511387  C2018 03 31.02927 07 18 06.05 +17 41 41.8          12.9 Rq     Y00
     S511387  C2018 03 31.02960 07 18 08.57 +17 41 19.5          12.6 Rq     Y00
     S511387  C2018 03 31.02991 07 18 11.19 +17 40 57.2          12.6 Rq     Y00
     S511387  C2018 03 31.03023 07 18 13.85 +17 40 35.1          12.5 Rq     Y00
     S511387  C2018 03 31.03085 07 18 18.95 +17 39 50.7          12.6 Rq     Y00
     S511387  C2018 03 31.03241 07 18 31.70 +17 38 01.2          14.8 Rq     Y00
     S511387  C2018 03 31.03339 07 18 39.47 +17 36 53.8          14.6 Rq     Y00
     S511387  C2018 03 31.03442 07 18 48.22 +17 35 40.0          14.2 Rq     Y00

Station data:
(Y00) SONEAR Observatory, Oliveira  (S20.715082 W44.784960)  Brazil.
   Observers C. Jacques, E. Pimentel, J. Barros. Measurer C. Jacques. 0.28-m
   f/2.2 astrograph + CCD.

Orbital elements:  S511387
   Perigee 2018 Mar 31.365906 +/- 0.004 TT =  8:46:54 (JD 2458208.865906)
Epoch 2018 Mar 31.0 TT = JDT 2458208.5                        Gray
M 268.37854 +/- 2.3                 (J2000 equator)
n 250.39643187 +/- 6.83             Peri.  301.93715 +/- 0.8
a 53808.5656 +/- 978                Node   332.30893 +/- 0.34
e   0.8651844 +/- 0.00172           Incl.   23.08290 +/- 0.06
P2070.28m/1.438d           H 27.4   G  0.15   U 14.0  
q 7254.23352 +/- 198    Q 100362.897 +/- 1796
From 15 observations 2018 Mar. 30-31 (60.3 min); mean residual 1".124
Residuals in arcseconds: 
180330 Y00 .080- .151+    180331 Y00 2.10+ 1.26-    180331 Y00 .355+ .407+    
180330 Y00 .244+ .322-    180331 Y00 1.85- 1.34+    180331 Y00 1.50+ .813-    
180330 Y00 .539- .442+    180331 Y00 .522- .453+    180331 Y00 2.13+ 1.20-    
180331 Y00 .881- .302+    180331 Y00 2.46- 1.04+    180331 Y00 1.70- .276+    
180331 Y00 .470+ .218-    180331 Y00 .730- .262+    180331 Y00 1.95+ .847-    

Ephemerides (geocentric):
Date (UTC) HH   RA              Dec         delta   r     elong  mag " sig PA
---- -- -- --  ------------   ------------  ------ ------ -----  --- ---- ---
2018 03 31 00  07 24 10.184   +15 42 03.02   83498 0.9989 100.3 13.9 99.2 138
2018 03 31 01  07 33 15.005   +15 00 47.08   78968 0.9990 102.5 13.7  117 127
2018 03 31 02  07 43 27.427   +14 12 27.66   73749 0.9990 105.0 13.5  143 119
2018 03 31 03  07 55 15.435   +13 14 08.01   67751 0.9990 108.0 13.2  186 113
2018 03 31 04  08 09 25.441   +12 00 47.90   60848 0.9990 111.5 12.9  265 108
2018 03 31 05  08 27 22.705   +10 23 03.23   52850 0.9990 116.1 12.4  427 107
2018 03 31 06  08 52 09.376   +08 00 24.85   43459 0.9991 122.5 11.8  818 107
2018 03 31 07  09 32 06.765   +03 55 58.74   32143 0.9991 132.9 10.8 2068 110
2018 03 31 08  11 07 04.655   -06 04 22.98   17864 0.9990 157.3  8.9 170' 111
2018 03 31 09  22 07 55.127   -00 05 59.43    9248 0.9989  37.7 13?? 854'  67
2018 03 31 10  02 18 28.288   +20 41 29.26   25111 0.9988  29.5 17?? 195'  81
2018 03 31 11  03 25 34.261   +22 42 46.49   37807 0.9988  44.5 15?? 7300  88
2018 03 31 12  04 01 26.091   +23 04 10.65   48119 0.9988  52.5 15?? 5787  92
2018 03 31 13  04 25 25.541   +23 01 32.81   56801 0.9988  57.8 15?? 5036  94
2018 03 31 14  04 43 23.176   +22 50 41.04   64250 0.9988  61.8 15.3 4593  96
2018 03 31 15  04 57 46.841   +22 36 29.09   70704 0.9988  65.1 15.3 4306  97
2018 03 31 16  05 09 51.592   +22 20 48.11   76319 0.9988  67.8 15.3 4109  99
2018 03 31 17  05 20 20.393   +22 04 24.84   81202 0.9988  70.1 15.2 3972 100
2018 03 31 18  05 29 40.035   +21 47 39.57   85430 0.9989  72.2 15.2 3876 100
2018 03 31 19  05 38 08.346   +21 30 40.52   89061 0.9989  74.2 15.2 3812 101
2018 03 31 20  05 45 57.836   +21 13 29.91   92138 0.9989  75.9 15.2 3772 102
2018 03 31 21  05 53 17.683   +20 56 06.75   94695 0.9989  77.6 15.2 3754 102
2018 03 31 22  06 00 14.902   +20 38 28.08   96758 0.9990  79.2 15.1 3755 103
2018 03 31 23  06 06 55.069   +20 20 29.67   98345 0.9990  80.7 15.1 3774 103
2018 04 01 00  06 13 22.790   +20 02 06.21   99472 0.9990  82.2 15.0 3812 104
2018 04 01 01  06 19 42.026   +19 43 11.39  100146 0.9991  83.6 15.0 3868 104
2018 04 01 02  06 25 56.334   +19 23 37.79  100374 0.9991  85.1 14.9 3946 104
2018 04 01 03  06 32 09.054   +19 03 16.67  100158 0.9991  86.5 14.9 4047 105
2018 04 01 04  06 38 23.474   +18 41 57.61   99496 0.9991  88.0 14.8 4175 105
2018 04 01 05  06 44 42.990   +18 19 27.99   98383 0.9992  89.5 14.7 4337 106
2018 04 01 06  06 51 11.280   +17 55 32.31   96808 0.9992  91.0 14.6 4538 106
2018 04 01 07  06 57 52.515   +17 29 51.08   94759 0.9992  92.6 14.5 4791 106
2018 04 01 08  07 04 51.637   +17 01 59.30   92216 0.9993  94.2 14.4 5110 107
2018 04 01 09  07 12 14.759   +16 31 24.04   89153 0.9993  96.0 14.2 5519 107
2018 04 01 10  07 20 09.766   +15 57 20.72   85537 0.9993  97.9 14.1 6051 107
2018 04 01 11  07 28 47.276   +15 18 46.89   81326 0.9993 100.0 13.9 6762 108
2018 04 01 12  07 38 22.279   +14 34 11.51   76461 0.9994 102.4 13.7 7743 108
2018 04 01 13  07 49 17.118   +13 41 15.11   70866 0.9994 105.1 13.4 9160 109
2018 04 01 14  08 02 07.387   +12 36 09.90   64435 0.9994 108.3 13.1 189' 109
2018 04 01 15  08 17 54.941   +11 12 10.82   57013 0.9994 112.3 12.7 250' 110
2018 04 01 16  08 38 41.319   +09 15 44.97   48367 0.9995 117.6 12.2 370' 111
2018 04 01 17  09 09 15.735   +06 14 06.72   38102 0.9995 125.6 11.4 681' 112
2018 04 01 18  10 06 00.190   +00 17 03.48   25478 0.9995 140.5 10.1  39d 113
2018 04 01 19  14 00 38.826   -19 52 09.69    9612 0.9994 155.8 Sha  160d 102
2018 04 01 20  01 08 34.068   +16 47 41.52   17455 0.9992  13.6 21??  25d  74
2018 04 01 21  02 59 05.302   +22 08 41.24   31832 0.9992  37.2 16?? 646'  84
2018 04 01 22  03 46 08.605   +22 59 17.97   43208 0.9992  47.6 15?? 410'  88
2018 04 01 23  04 14 54.758   +23 04 30.76   52641 0.9992  54.1 15?? 306'  91
2018 04 02 00  04 35 25.857   +22 56 17.48   60670 0.9992  58.6 15?? 249'  93
2018 04 02 01  04 51 22.897   +22 43 02.13   67599 0.9992  62.2 15.4 213'  95